Probability
2 4 6 8 8 8 7 8 11 14 16 16 17 19 22 21 16 11 8 5 3 1 0 0 0 0 0 0 1 2 2 1 0 0 0 0 1 1 0 0 0 0 0
2 5 7 10 11 11 10 10 12 14 16 17 18 18 19 20 17 14 10 7 3 1 0 0 0 0 0 0 0 1 1 0 0 0 0 0 1 2 1 0 0 0 0
6 8 11 14 17 17 14 14 14 14 15 17 18 18 19 18 17 15 11 7 3 1 0 0 0 0 0 0 0 0 0 0 0 0 0 0 1 1 1 0 0 0 0
11 12 15 20 25 24 21 19 19 17 15 15 17 18 18 17 15 13 10 7 4 2 0 0 0 0 0 0 1 1 0 0 0 0 0 0 0 0 0 0 0 0 0
12 13 18 27 32 31 28 25 23 22 20 17 17 18 17 15 12 11 10 9 6 2 0 0 0 1 1 1 1 1 0 0 0 0 0 0 0 0 0 0 0 0 0
11 12 19 31 38 36 31 26 25 25 24 21 20 20 18 15 12 11 11 9 6 2 0 0 2 4 3 2 1 1 0 0 0 0 0 0 0 0 0 0 0 0 0
14 14 22 35 42 39 32 26 23 23 23 21 20 19 17 14 12 12 11 9 6 2 0 0 2 5 4 3 1 0 0 0 0 0 0 0 1 1 2 1 0 0 0
18 19 26 36 42 39 32 25 21 19 18 18 17 15 13 12 12 11 9 8 5 2 0 0 1 2 3 3 1 0 0 0 0 0 0 1 2 3 3 2 1 0 0
20 22 27 32 36 35 30 25 22 20 17 16 14 12 12 12 11 9 7 6 4 2 0 0 0 0 1 2 1 1 1 1 0 0 1 2 3 3 4 3 1 0 0
21 21 22 25 27 29 27 25 25 24 21 18 16 14 15 15 12 9 8 8 5 3 2 1 1 1 0 0 0 1 2 3 2 1 1 2 3 4 5 4 2 1 0
21 18 18 20 22 25 25 25 27 27 24 21 19 17 17 16 13 10 10 10 8 6 5 4 3 2 2 2 2 2 4 6 5 2 2 3 5 5 5 4 4 3 2
16 15 16 18 21 23 23 23 24 25 24 20 18 18 17 15 13 10 10 10 10 10 9 8 6 5 7 7 6 5 6 7 6 3 2 3 5 6 6 5 5 4 4
10 12 13 15 17 18 18 19 21 23 22 20 18 18 18 15 13 10 9 9 10 11 11 10 9 10 11 12 11 8 6 7 6 3 1 2 5 7 6 5 5 5 4
7 7 9 11 13 12 11 14 17 20 21 20 18 18 17 14 11 9 8 7 7 8 9 9 8 9 10 11 11 8 6 5 4 2 1 3 5 6 5 5 5 5 4
4 4 5 8 10 9 9 10 13 17 18 17 16 15 14 12 9 8 7 5 4 5 5 6 6 7 8 9 9 9 7 6 5 3 2 5 6 5 5 5 5 4 4
2 1 2 5 7 7 7 8 10 12 14 14 14 13 12 11 10 8 6 5 3 3 3 3 4 5 6 7 7 8 8 7 6 4 2 4 5 6 7 8 6 6 7
1 1 1 2 3 5 5 6 8 9 10 12 12 11 11 11 10 7 5 4 3 1 1 1 2 3 3 4 4 4 4 4 5 4 2 2 3 4 7 9 9 9 13
3 3 2 2 3 4 5 6 7 8 8 9 9 8 8 9 9 6 4 3 2 1 1 2 2 1 1 1 1 1 1 1 1 2 1 0 0 1 3 5 7 10 14
6 7 7 6 6 5 6 7 7 7 6 6 7 7 7 7 7 5 4 3 1 0 1 3 2 1 0 0 0 0 0 0 0 0 0 0 0 0 0 1 3 6 10
9 10 11 11 8 7 6 7 7 6 5 5 6 6 6 5 5 4 3 3 1 1 1 1 1 0 0 0 0 0 0 0 0 0 0 0 0 0 0 0 1 3 5
12 13 14 13 11 8 7 7 7 6 4 4 5 6 5 4 3 3 3 3 3 2 1 0 0 0 0 0 0 0 0 0 0 0 0 0 0 0 0 0 1 2 3
16 16 15 14 12 10 7 6 5 3 2 2 3 4 4 4 4 4 3 3 3 2 1 0 0 0 0 0 0 0 0 0 0 0 0 1 0 0 0 0 1 1 1
19 17 15 14 14 12 9 6 4 2 1 1 2 3 4 4 4 4 4 3 3 1 0 0 0 0 0 0 0 0 0 0 0 0 0 0 0 0 0 0 0 0 0
20 18 16 15 15 14 11 8 5 2 1 1 1 1 2 3 3 3 3 3 3 1 0 0 0 0 0 0 0 0 0 0 0 0 0 0 0 0 0 0 0 0 0
19 18 16 15 14 14 11 8 4 2 1 2 1 0 0 1 1 1 2 2 2 1 0 0 0 0 0 0 0 0 0 0 0 0 0 0 0 0 0 0 0 0 0
17 16 15 13 12 11 9 6 3 1 1 1 1 0 0 0 0 0 1 1 1 1 0 0 0 0 0 0 0 0 0 0 0 0 0 0 0 0 0 0 0 0 0
Wind_Speed
6 9 16 16 16 15 15 15 15 15 15 16 16 15 15 15 15 14 13 12 11 10 10 9 8 8 8 8 8 8 9 9 9 10 10 10 10 10 10 10 10 8 11
11 11 16 16 16 16 15 15 15 15 15 15 15 15 14 14 14 13 12 12 11 10 9 9 8 8 8 7 8 8 8 8 8 9 9 9 9 10 10 9 9 6 10
13 11 14 16 16 16 15 15 14 14 14 14 14 13 13 13 12 12 11 10 10 9 9 8 8 7 7 7 7 7 7 7 7 8 7 4 6 9 10 10 10 10 10
13 10 11 16 15 15 15 14 14 14 13 13 13 13 12 12 11 11 10 10 9 8 8 7 7 7 6 6 6 6 6 6 6 6 4 3 4 9 10 10 11 10 10
10 9 12 17 15 15 15 14 14 13 13 13 12 12 11 11 10 10 9 9 8 8 7 7 6 6 6 5 5 4 4 5 5 5 4 3 2 7 10 11 11 11 11
9 8 11 16 15 15 14 14 13 13 12 12 12 11 10 10 9 9 8 8 7 7 6 6 5 5 5 4 4 3 4 4 4 3 4 4 4 7 10 11 12 12 11
9 7 9 15 14 14 14 13 13 12 12 11 10 10 9 9 8 8 7 7 6 6 5 5 4 4 4 3 3 3 3 4 3 3 3 4 6 9 10 11 12 12 12
9 7 7 14 14 13 13 13 12 11 11 10 9 9 9 8 7 7 7 7 6 6 5 5 4 4 4 4 4 4 4 4 3 3 4 4 8 11 12 12 12 12 12
7 6 5 6 9 12 12 12 11 10 9 9 9 8 8 8 7 7 7 7 7 6 6 6 6 6 5 5 5 5 5 5 3 2 4 3 7 11 12 12 13 13 13
6 5 4 4 4 5 6 10 10 9 9 9 8 8 8 7 7 7 6 6 7 7 7 7 7 7 7 6 6 7 7 5 3 3 3 4 9 11 12 13 14 14 14
6 4 4 4 3 3 4 6 7 8 8 7 6 8 6 3 2 3 5 7 8 8 7 7 7 7 7 7 7 7 5 2 3 3 3 7 10 12 13 13 14 15 15
8 6 4 4 4 4 4 3 2 3 3 3 2 2 1 1 2 3 4 7 7 7 7 6 6 6 5 2 4 5 2 3 3 3 4 9 10 12 12 13 15 15 16
7 6 6 5 4 4 2 2 2 1 2 2 2 2 1 1 1 2 1 2 3 4 2 3 3 2 2 2 2 2 3 3 3 3 5 9 10 11 12 13 14 15 16
5 6 5 5 4 4 3 2 2 2 2 2 2 2 2 1 1 1 1 1 1 1 1 1 1 2 3 2 3 3 4 3 3 3 5 9 10 11 12 12 13 15 15
5 5 5 6 5 4 3 2 3 2 2 2 1 1 2 2 2 1 1 1 1 1 1 1 2 2 2 2 3 3 4 4 4 4 3 8 10 10 11 12 13 14 15
5 4 4 5 5 4 4 3 2 2 2 2 2 2 2 2 1 1 1 1 1 1 1 1 1 1 1 2 3 3 4 4 4 4 4 5 8 9 10 11 13 14 15
4 3 3 4 4 4 5 4 2 2 2 2 1 1 2 2 2 1 1 1 1 1 1 1 1 1 1 2 3 4 3 3 4 4 4 3 4 7 9 9 10 11 13
3 2 2 2 3 4 3 3 1 1 1 1 1 1 1 1 2 2 1 1 0 0 0 1 1 1 1 2 3 3 2 3 4 4 3 2 2 3 5 8 8 8 10
3 3 2 2 2 2 2 2 2 1 1 1 1 1 1 1 1 2 1 1 1 0 1 1 1 1 1 2 3 2 2 2 2 3 2 2 2 3 3 5 7 7 8
2 2 2 2 2 2 1 1 1 1 1 1 0 1 1 1 1 1 1 0 1 0 1 1 1 1 1 2 2 2 2 2 2 2 2 2 2 2 3 3 3 4 7
2 2 2 2 1 1 1 1 1 1 0 0 0 0 1 1 1 2 1 1 0 1 0 1 1 1 1 1 1 2 2 2 2 1 1 2 2 3 3 3 2 2 3
2 2 1 1 1 1 1 1 1 1 1 1 0 0 1 1 1 1 1 1 1 1 0 0 0 0 0 0 0 0 2 3 2 2 2 2 2 2 3 3 3 2 2
2 2 2 1 1 1 1 1 2 2 1 1 1 1 1 0 0 1 1 1 1 1 1 1 0 0 1 1 0 1 1 2 3 2 2 2 3 2 3 3 3 3 3
3 2 2 1 2 2 2 2 3 2 1 1 0 0 1 1 1 1 0 1 1 1 1 1 1 1 1 1 1 0 1 2 1 2 2 2 3 3 3 3 3 3 2
2 2 2 2 2 2 2 2 2 1 0 1 1 1 1 1 1 1 0 0 1 1 1 1 0 1 1 1 1 1 1 1 2 2 3 3 3 2 3 3 2 2 2
2 2 2 2 2 2 2 2 2 2 1 1 1 1 1 1 1 1 1 1 0 0 0 1 1 1 1 1 1 2 2 1 2 2 3 3 4 3 3 2 2 2 2
Wind_Direction
157 158 156 149 142 137 132 128 123 120 118 118 120 124 128 132 135 137 140 140 139 138 136 131 126 122 119 117 117 120 123 126 128 133 139 142 141 138 138 137 133 133 135
148 155 155 151 145 141 136 131 128 124 122 122 124 126 129 132 134 136 139 141 141 141 138 136 132 129 126 125 124 126 129 134 138 141 144 146 148 147 147 145 141 143 142
142 151 153 152 149 144 139 135 133 131 129 128 128 130 132 134 136 138 140 142 144 145 143 141 138 135 132 131 132 135 137 142 146 149 141 138 154 159 158 156 153 151 149
142 145 152 154 151 147 143 140 138 137 135 135 134 136 137 138 139 141 144 146 146 146 147 147 145 140 138 139 141 144 149 152 157 153 137 153 171 174 170 165 163 161 158
139 143 156 155 154 151 147 145 144 143 142 143 142 143 143 144 145 146 148 151 151 151 154 154 152 147 145 148 151 156 162 167 172 160 162 180 193 185 179 174 170 170 168
136 143 157 156 156 155 153 151 150 150 150 150 150 149 150 152 153 154 157 160 161 162 164 164 159 157 157 159 166 175 182 189 179 167 180 191 197 197 188 183 179 177 175
140 145 156 157 158 158 157 156 157 157 157 157 158 158 159 160 162 165 169 173 175 176 177 179 177 178 183 185 191 201 209 213 181 187 196 203 208 208 200 194 191 186 183
142 143 151 160 161 162 162 161 162 164 164 165 166 168 170 172 175 179 182 187 192 194 195 196 202 207 210 215 218 223 233 238 212 213 213 214 217 215 210 203 198 196 192
136 139 148 159 163 165 166 168 169 169 171 173 175 179 182 186 190 197 200 203 208 210 214 216 220 224 225 227 231 235 242 247 226 220 230 221 227 223 217 210 204 201 199
135 141 146 150 150 155 165 174 175 177 181 185 188 192 196 201 205 211 212 218 223 226 231 235 235 235 237 237 239 242 247 252 240 235 235 236 236 230 223 215 210 206 205
151 154 153 150 145 147 162 180 180 183 189 195 200 205 205 207 223 231 231 231 235 237 241 247 247 245 245 247 247 249 255 235 232 240 234 243 242 237 230 221 216 213 210
172 173 166 161 157 158 176 172 168 177 182 189 189 207 194 198 230 242 259 251 248 245 247 253 257 255 253 251 258 263 253 241 239 244 244 250 248 243 235 226 222 219 216
175 174 176 175 171 172 180 166 164 169 168 180 189 196 195 206 237 255 268 276 274 265 263 268 267 253 249 238 239 246 246 247 248 251 251 254 253 245 238 231 226 224 222
170 181 181 178 178 186 184 183 175 179 185 191 196 188 187 207 243 254 247 259 264 264 260 269 266 264 263 251 239 247 253 248 247 250 255 261 260 253 245 239 234 231 227
177 187 189 184 187 187 186 200 192 195 196 194 188 191 187 199 223 245 264 260 261 254 246 254 257 270 274 274 262 259 264 262 258 251 257 267 272 266 254 248 243 238 233
190 196 187 188 188 185 196 200 199 196 202 192 183 197 191 193 199 209 236 253 269 274 272 271 274 258 266 272 276 270 261 261 260 258 256 269 277 277 268 257 250 245 237
193 192 184 186 186 187 201 202 194 184 181 188 181 190 185 181 185 189 202 237 264 274 280 286 288 280 282 278 275 272 263 260 264 268 270 268 275 278 277 271 263 253 245
164 162 183 185 177 188 191 188 179 156 167 179 163 165 182 182 169 164 179 224 272 308 260 244 265 273 282 286 283 278 275 272 272 270 269 272 274 280 284 285 278 265 254
157 151 157 152 166 182 170 154 138 143 160 156 141 149 165 171 163 161 173 215 153 249 264 260 240 231 271 286 279 273 281 280 282 281 280 284 275 273 278 290 286 277 266
137 128 128 124 115 127 122 113 110 101 89 94 132 183 168 171 170 153 152 206 140 178 279 290 267 261 262 282 286 299 301 296 293 290 293 304 297 289 281 277 280 284 277
118 109 101 90 74 102 122 147 145 151 126 98 227 225 171 179 177 160 164 172 143 157 240 283 263 270 299 317 328 328 323 312 301 303 306 307 315 305 294 286 279 276 287
141 135 120 118 115 140 158 143 137 133 148 175 221 330 236 210 206 173 162 171 157 153 59 346 317 243 320 36 121 0 325 327 334 322 309 306 321 322 310 301 288 273 277
152 161 162 184 160 128 107 103 86 68 56 46 29 359 334 303 186 153 179 176 159 160 221 249 240 195 251 278 211 153 172 269 310 311 321 331 333 322 313 302 289 277 265
178 153 131 119 91 89 109 134 141 145 174 228 227 263 342 18 44 80 143 168 186 206 231 245 189 200 195 226 259 237 205 199 239 300 311 320 324 317 309 308 304 289 272
153 133 125 104 78 84 107 122 121 98 54 23 43 38 2 1 8 18 9 198 213 225 233 247 202 190 201 205 206 211 218 224 222 238 286 307 316 304 300 296 295 299 304
123 115 107 101 81 75 87 96 109 115 102 76 43 28 358 339 333 349 3 18 267 227 245 266 261 235 225 225 225 209 203 211 223 224 256 292 303 307 307 298 296 296 310